Location: Vancouver
(49.2500°N, 123.1330°W)
Time: 08:51:06
(UTC-07:00)

Vanguard 2 Rocket - Visible Passes

Search period start: 30 September 2014 00:00
Search period end: 10 October 2014 00:00
Orbit: 553 x 3336 km, 32.9° (Epoch: 29 September)

Date Brightness Start Highest point End Pass type
(mag) Time Alt. Az. Time Alt. Az. Time Alt. Az.
05 Oct 10.6 06:23:11 10° SSE 06:28:42 14° SE 06:35:18 10° ESE visible
07 Oct 10.3 06:36:17 10° S 06:43:43 20° SE 06:53:36 10° E visible
08 Oct 10.3 05:42:03 10° SSE 05:45:34 12° SE 05:49:37 10° ESE visible
09 Oct 10.0 06:50:49 10° SSW 06:58:58 25° SE 07:10:37 10° E visible
